Location: Hampton Manor
(42.6209°N, 73.7285°W)
Time: 16:52:18
(UTC+00:00)

Daily predictions for brighter satellites

Satellite Brightness Start Highest point End
(mag) Time Altitude Azimuth Time Altitude Azimuth Time Altitude Azimuth
Cosmos 2016 Rocket 4.0 22:53:15 10° S 22:59:16 68° E 23:05:22 10° NNE
STARLINK-24 3.6 22:55:25 10° SW 22:59:26 86° NW 23:03:28 10° NE
NOAA 11 4.5 22:54:40 10° SE 22:59:50 46° ENE 23:05:01 10° N
Abrixas rocket 4.1 22:59:28 10° W 23:02:02 27° SW 23:04:35 10° SSE
STARLINK-1007 2.9 23:01:00 10° SW 23:04:08 77° SE 23:07:18 10° NE
Aureole 2 Rocket 3.2 23:03:34 10° SSE 23:05:29 19° ESE 23:07:27 10° NE
STARLINK-42 4.0 23:04:12 10° WSW 23:07:16 41° NNW 23:10:20 10° NE
Cosmos 1354 Rocket 4.3 23:02:49 10° NNW 23:08:07 75° WSW 23:13:21 10° SSE
STARLINK-81 3.6 23:04:09 10° WSW 23:08:10 81° NW 23:12:13 10° NE
Cosmos 1340 4.1 23:05:42 10° SE 23:08:15 18° E 23:10:49 10° NE
STARLINK-54 3.7 23:06:01 10° WSW 23:10:02 73° NNW 23:14:03 10° NE
USA 116 4.1 23:06:20 10° NNE 23:10:09 47° E 23:14:27 10° S
STARLINK-75 4.2 23:08:05 10° W 23:11:19 40° NNW 23:14:35 10° NE
STARLINK-77 3.7 23:07:29 10° WSW 23:11:30 76° NW 23:15:32 10° NE
Cosmos 1782 3.9 23:08:13 10° NNW 23:12:07 51° W 23:15:59 10° S
STARLINK-25 3.7 23:09:07 10° WSW 23:13:08 74° NW 23:17:10 10° NE
Cosmos 1943 Rocket 2.3 23:09:02 10° S 23:14:28 55° ESE 23:19:53 10° NNE
STARLINK-71 3.8 23:11:00 10° WSW 23:15:00 66° NNW 23:19:01 10° NE
ADEOS Rocket 3.8 23:07:54 10° NNE 23:15:23 48° E 23:22:43 10° S
STARLINK-1010 2.9 23:12:14 10° SW 23:15:23 83° NW 23:18:33 10° NE
STARLINK-22 4.0 23:12:19 10° WSW 23:15:35 45° NNW 23:18:53 10° NE
Cosmos 2233 Rocket 4.2 23:09:48 10° SSE 23:15:36 46° E 23:21:28 10° NNE
Ariane Rocket 4.0 23:11:56 10° ESE 23:16:03 25° ENE 23:20:12 10° N
Okean-O 3.4 23:11:44 10° S 23:16:06 59° W 23:20:29 10° NNW
STARLINK-79 3.8 23:12:26 10° WSW 23:16:27 70° NNW 23:20:29 10° NE
NOSS 2-3 (E) 4.5 23:12:50 10° S 23:16:32 29° ESE 23:20:36 10° NE
STARLINK-41 4.1 23:13:52 10° WSW 23:17:06 41° NNW 23:20:20 10° NE
STARLINK-78 3.8 23:14:08 10° WSW 23:18:08 67° NW 23:22:09 10° NE
SL-4 R/B 2.7 23:13:54 10° WNW 23:18:38 65° SW 23:23:07 10° SE
H-2A R/B 3.4 23:14:57 10° ESE 23:18:44 20° ENE 23:22:34 10° NNE
STARLINK-57 3.9 23:15:54 10° WSW 23:19:52 63° NW 23:23:53 10° NE
STARLINK-1047 4.4 23:16:26 10° SSW 23:20:13 35° SE 23:23:33 13° ENE
STARLINK-49 3.9 23:17:25 10° WSW 23:21:25 64° NNW 23:25:26 10° NE
Sich 1 3.1 23:17:09 10° S 23:21:26 82° W 23:25:44 10° N
Cosmos 1862 3.3 23:18:06 10° S 23:22:06 89° WNW 23:26:06 10° N
STARLINK-1020 4.4 23:18:32 10° SSW 23:22:18 35° SE 23:25:29 13° ENE
STARLINK-1014 3.1 23:19:08 10° SW 23:22:32 89° SE 23:25:43 12° NE
STARLINK-27 3.9 23:19:06 10° WSW 23:23:06 62° NNW 23:27:05 10° NE
STARLINK-74 4.0 23:20:46 10° WSW 23:24:44 61° NNW 23:28:44 10° NE
Cosmos 1470 Rocket 4.2 23:21:54 10° SSE 23:25:48 33° E 23:29:44 10° NNE
STARLINK-1008 3.2 23:22:40 10° WSW 23:25:52 66° NW 23:28:47 12° NE
Cosmos 1805 Rocket 4.5 23:21:39 10° SSW 23:25:56 52° W 23:30:13 10° N
STARLINK-1035 4.1 23:22:13 10° SSW 23:26:15 44° SE 23:29:36 14° ENE
STARLINK-39 4.0 23:22:25 10° WSW 23:26:24 59° NNW 23:30:21 10° NE
STARLINK-1016 3.2 23:23:20 10° WSW 23:26:30 65° NW 23:29:22 12° NE
STARLINK-1052 4.2 23:23:26 10° SSW 23:27:16 39° SE 23:30:17 15° ENE
STARLINK-31 4.0 23:24:07 10° WSW 23:28:04 57° NNW 23:31:58 11° NE
STARLINK-1025 3.3 23:25:11 10° WSW 23:28:20 63° NW 23:31:08 13° NE
STARLINK-1017 3.3 23:26:33 10° WSW 23:29:42 61° NW 23:32:28 13° NE
STARLINK-69 4.2 23:25:59 10° WSW 23:29:54 52° NNW 23:33:44 11° NE
CZ-2D R/B 3.2 23:26:23 10° SSE 23:30:15 69° ENE 23:34:08 10° N
Cosmos 1812 2.7 23:26:52 10° N 23:30:42 63° E 23:34:31 10° SSE
STARLINK-60 3.8 23:28:01 10° NW 23:31:06 35° NNE 23:32:57 19° E
NOSS 2-3 (D) 4.1 23:27:25 10° S 23:31:19 37° ESE 23:35:36 10° NE
COSMO-SKYMED 1 3.5 23:27:07 10° N 23:31:21 52° WNW 23:35:34 10° SSW
STARLINK-21 4.1 23:27:27 10° WSW 23:31:24 54° NNW 23:35:09 11° NE
STARLINK-1029 2.9 23:28:46 10° WSW 23:31:56 80° NW 23:34:26 15° NE
USA 229 DEB 3.7 23:26:16 10° SW 23:32:47 86° WNW 23:39:41 10° NE
USA 229 3.7 23:26:22 10° SW 23:32:54 87° NW 23:39:46 10° NE
STARLINK-45 4.3 23:29:23 10° WSW 23:33:17 48° NNW 23:36:59 11° NE
STARLINK-1048 3.4 23:30:27 10° WSW 23:33:36 56° NNW 23:36:13 14° NE
Cosmos 1862 Rocket 3.8 23:29:47 10° N 23:33:59 46° ENE 23:38:09 10° SSE
STARLINK-1049 3.5 23:31:41 10° WSW 23:34:51 55° NNW 23:37:25 14° NE
STARLINK-70 4.3 23:30:57 10° WSW 23:34:51 49° NNW 23:38:28 12° NE
STARLINK-1028 3.5 23:32:17 10° WSW 23:35:27 54° NNW 23:38:00 15° NE
STARLINK-1051 3.5 23:33:03 10° WSW 23:36:11 53° NNW 23:38:41 15° NE
STARLINK-76 4.3 23:32:28 10° WSW 23:36:23 50° NNW 23:39:55 12° NE
CZ-2C R/B 4.3 23:32:08 10° ESE 23:36:47 25° ENE 23:41:23 10° N
STARLINK-1021 3.6 23:33:39 10° WSW 23:36:48 53° NNW 23:39:19 15° NE
STARLINK-1027 3.8 23:32:40 10° SW 23:36:50 58° SE 23:39:53 18° ENE
Cosmos 1707 Rocket 3.9 23:32:23 10° NNW 23:36:50 71° W 23:41:16 10° S
STARLINK-1033 4.0 23:33:12 10° SSW 23:37:10 46° SE 23:39:50 19° ENE
STARLINK-23 4.3 23:34:09 10° WSW 23:38:03 48° NNW 23:41:31 13° NE
STARLINK-1019 3.6 23:35:01 10° WSW 23:38:11 51° NNW 23:40:38 15° NE
Cosmos 1346 Rocket 3.4 23:35:54 10° SSE 23:39:31 33° E 23:43:07 10° NNE
STARLINK-1012 3.7 23:36:28 10° WSW 23:39:37 50° NNW 23:42:01 16° NE
STARLINK-32 4.3 23:35:49 10° WSW 23:39:42 47° NNW 23:43:06 13° NE
NOSS 3-1 (A) 3.2 23:34:39 10° SSW 23:40:01 69° ESE 23:46:12 10° NE
Cosmos 1607 4.3 23:34:02 10° NW 23:40:20 71° WSW 23:46:39 10° SSE
STARLINK-40 4.4 23:37:28 10° WSW 23:41:22 46° NNW 23:44:42 13° NE
STARLINK-1026 3.8 23:39:15 10° WSW 23:42:23 47° NNW 23:44:41 17° NE
STARLINK-44 4.4 23:39:08 10° WSW 23:43:01 45° NNW 23:46:17 14° NE
STARLINK-1013 3.8 23:40:47 10° WSW 23:43:55 46° NNW 23:46:09 17° NE
STARLINK-1009 3.8 23:42:10 10° WSW 23:45:17 45° NNW 23:47:28 17° NE
Lacrosse 4 Rocket 3.7 23:41:54 10° WSW 23:45:18 23° NW 23:48:47 10° N
STARLINK-36 4.5 23:42:29 10° WSW 23:46:20 43° NNW 23:49:28 15° NE
STARLINK-1015 3.9 23:43:37 10° WSW 23:46:44 44° NNW 23:48:52 18° NE
STARLINK-1024 3.7 23:43:03 10° SW 23:47:06 57° SE 23:49:25 24° ENE
Cosmos 1656 Rocket 4.0 23:46:17 10° S 23:51:19 39° ESE 23:56:28 10° NE
Cosmos 2369 Rocket 2.2 23:47:46 10° SSW 23:53:24 88° ESE 23:59:08 10° NNE
SJ-11-01 4.4 23:49:03 10° SE 23:53:33 49° ENE 23:58:03 10° N
